This is the latest recevied weather packets stored in our database for station/object W9WRP. If no packets are shown the sender has not sent any weather packets the latest 10 day(s).
| Time | Temp. | Humidity | Pressure | Rain* | Wind** | Luminosity | Snow |
|---|---|---|---|---|---|---|---|
| 1787671489 | 36.11° C | 23% | 1016.8 hPa | 0 mm | - | 58 W/m² | - |
| 1787671184 | 35.56° C | 24% | 1016.6 hPa | 0 mm | - | 53 W/m² | - |
| 1787670880 | 35° C | 25% | 1016.5 hPa | 0 mm | - | 49 W/m² | - |
| 1787670576 | 34.44° C | 25% | 1016.7 hPa | 0 mm | - | 57 W/m² | - |
| 1787670269 | 34.44° C | 26% | 1016.8 hPa | 0 mm | - | 48 W/m² | - |
| 1787669969 | 33.89° C | 26% | 1016.8 hPa | 0 mm | - | 41 W/m² | - |
| 1787669664 | 33.89° C | 27% | 1016.9 hPa | 0 mm | - | 40 W/m² | - |
| 1787669359 | 33.33° C | 27% | 1016.9 hPa | 0 mm | - | 45 W/m² | - |
| 1787669054 | 33.33° C | 27% | 1016.8 hPa | 0 mm | - | 52 W/m² | - |
| 1787668750 | 33.89° C | 26% | 1016.6 hPa | 0 mm | - | 36 W/m² | - |
| 1787668447 | 33.33° C | 27% | 1016.8 hPa | 0 mm | - | 48 W/m² | - |
| 1787668141 | 32.78° C | 27% | 1016.8 hPa | 0 mm | - | 34 W/m² | - |
| 1787667837 | 32.78° C | 27% | 1016.5 hPa | 0 mm | - | 33 W/m² | - |
| 1787667532 | 32.78° C | 27% | 1016.6 hPa | 0 mm | - | 66 W/m² | - |
| 1787667229 | 32.22° C | 28% | 1016.7 hPa | 0 mm | - | 53 W/m² | - |
| 1787666928 | 31.67° C | 28% | 1016.5 hPa | 0 mm | - | 46 W/m² | - |
| 1787666624 | 31.11° C | 29% | 1016.8 hPa | 0 mm | - | 29 W/m² | - |
| 1787666323 | 31.11° C | 29% | 1016.4 hPa | 0 mm | - | 28 W/m² | - |
| 1787666019 | 30.56° C | 29% | 1016.5 hPa | 0 mm | - | 33 W/m² | - |
| 1787665714 | 30.56° C | 29% | 1016.3 hPa | 0 mm | - | 24 W/m² | - |
| 1787665410 | 30° C | 30% | 1016.4 hPa | 0 mm | - | 21 W/m² | - |
| 1787665110 | 30° C | 30% | 1016.4 hPa | 0 mm | - | 22 W/m² | - |
| 1787664807 | 30° C | 30% | 1016.3 hPa | 0 mm | - | 18 W/m² | - |
| 1787664506 | 29.44° C | 31% | 1016 hPa | 0 mm | - | 15 W/m² | - |
| 1787664202 | 28.89° C | 32% | 1016 hPa | 0 mm | - | 13 W/m² | - |
* Rain latest hour (hover to see other rain measurements)
** Current wind speed in m/s (hover to see current wind gust speed)